Simultaneous Nadir Overpasses (SNOs) Predictions

Prediction of SNOs between GOES-15 and METOP-B Satellite Orbit:

Table of predicted SNOs for the next 14.0 days since TLE Epoch: 10/8/2022
Index Date Time (GOES-15) GOES-15 Lat,Lon METOP-B Lat,Lon Distance(km) Time Diff (sec)
1 10/08/2022 18:18:15 -0.29,-128.28 0.62,-132.31 459.07 80
2 10/09/2022 18:00:16 -0.28,-128.30 -0.51,-127.32 112.27 80
3 10/11/2022 06:19:17 0.29,-128.31 -0.54,-131.91 410.98 80
4 10/12/2022 05:55:59 0.28,-128.32 0.59,-126.92 159.41 80
5 10/13/2022 18:14:51 -0.29,-128.35 0.44,-131.48 356.99 80
6 10/14/2022 17:56:53 -0.28,-128.37 -0.70,-126.49 213.77 80
7 10/16/2022 06:15:54 0.29,-128.37 -0.33,-131.08 309.64 80
8 10/17/2022 05:52:36 0.28,-128.37 0.80,-126.10 260.08 80
9 10/18/2022 18:11:28 -0.28,-128.39 0.22,-130.66 257.88 80
10 10/19/2022 17:53:28 -0.27,-128.40 -0.86,-125.65 312.36 80
11 10/21/2022 06:12:30 0.28,-128.41 -0.15,-130.25 210.82 80
